Torna al catalogo

STARLINK-4643

AttivoComunicazioniVLEO
NORAD 54824·PAYLOAD·🇺🇸 United States

Lanciato Dec 28, 2022 da Cape Canaveral Space Force Station

Loading…

Prossimi Passaggi (prossime 24 ore)

TLE

AggiornatoSource: CelesTrak SupGP

Epoca: Sep 14, 2026, 22:22 UTC

1 54824C 22177E   26257.93243056 -.00056527  00000+0 -20477-2 0  2571
2 54824  42.9995 147.2029 0001361 247.0450 232.7427 15.27601243    10

Traccia STARLINK-4643 in tempo reale con AllMySat

Download on the App Store